Location: Newark
(49.2191°N, 12.6671°E)
Time: 09:14:09
(UTC+00:00)

Vanguard 3 - Visible Passes

Search period start: 29 January 2020 00:00
Search period end: 08 February 2020 00:00
Orbit: 507 x 3264 km, 33.4° (Epoch: 28 January)

Date Brightness Start Highest point End Pass type
(mag) Time Alt. Az. Time Alt. Az. Time Alt. Az.
29 Jan 10.5 17:35:12 10° WSW 17:53:28 47° S 18:06:27 16° ESE visible
29 Jan 10.2 19:51:02 10° W 20:07:14 36° SSW 20:11:01 33° S visible
29 Jan 11.0 22:10:45 10° WSW 22:15:35 14° WSW 22:15:35 14° WSW visible
30 Jan 10.7 16:19:35 10° SW 16:37:19 46° S 16:53:40 10° ESE visible
30 Jan 10.3 18:34:02 10° WSW 18:51:52 44° SSW 19:01:18 24° SE visible
30 Jan 10.5 20:51:16 10° W 21:04:33 26° SW 21:05:53 25° SSW visible
31 Jan 10.6 17:17:46 10° WSW 17:35:55 47° S 17:51:38 10° ESE visible
31 Jan 10.4 19:33:27 10° W 19:49:49 35° SSW 19:56:12 27° S visible
31 Jan 11.0 21:53:44 10° WSW 22:00:47 15° SW 22:00:47 15° SW visible
01 Feb 10.8 16:02:19 10° WSW 16:19:42 47° S 16:36:47 10° ESE visible
01 Feb 10.6 18:16:35 10° W 18:34:21 43° SSW 18:46:36 17° SE visible
01 Feb 10.6 20:33:49 10° W 20:47:09 25° SW 20:51:11 22° SSW visible
02 Feb 10.7 17:00:30 10° WSW 17:18:19 47° S 17:34:47 10° ESE visible
02 Feb 10.6 19:16:00 10° W 19:32:19 34° SSW 19:41:38 20° SSE visible
02 Feb 11.1 21:36:59 10° WSW 21:43:50 13° SW 21:46:13 13° SW visible
03 Feb 10.7 17:59:16 10° W 18:16:45 42° SSW 18:32:07 10° SE visible
03 Feb 10.8 20:16:32 10° W 20:29:39 23° SW 20:36:45 17° S visible
04 Feb 10.8 16:43:24 10° WSW 17:00:42 47° S 17:17:45 10° ESE visible
04 Feb 10.9 18:58:42 10° W 19:14:43 33° SSW 19:27:21 13° SSE visible
04 Feb 11.2 21:20:46 10° WSW 21:26:21 12° SW 21:31:29 10° SW visible
05 Feb 10.9 17:42:07 10° W 17:59:08 40° SSW 18:15:01 10° SE visible
05 Feb 11.0 19:59:26 10° W 20:12:05 22° SW 20:22:39 11° S visible
06 Feb 10.9 16:26:26 10° WSW 16:43:04 46° S 17:00:32 10° SE visible
06 Feb 11.1 18:41:34 10° W 18:57:05 31° SSW 19:11:09 10° SSE visible
06 Feb 11.3 21:05:51 10° WSW 21:08:49 11° SW 21:11:42 10° SW visible
07 Feb 11.0 17:25:08 10° W 17:41:28 39° SSW 17:57:43 10° SE visible
07 Feb 11.2 19:42:36 10° W 19:54:27 20° SW 20:05:16 10° S visible
